Algona, IA

6:05 AM CST on November 24, 2017 (GMT -0600)
Algona Municipal

Weather History for KAXA - January, 2013

Change the Weather History Date:

Thursday, January 3, 2013

  Actual Average Record
Temperature  
Mean Temperature 16 °F -  
Max Temperature 26 °F 25 °F 39 °F (1998)
Min Temperature 6 °F 10 °F -13 °F (2014)
Degree Days  
Heating Degree Days 49    
Moisture  
Dew Point 8 °F    
Average Humidity 81    
Maximum Humidity 92    
Minimum Humidity 73    
Precipitation  
Precipitation 0.00 in - - ()
Sea Level Pressure  
Sea Level Pressure 30.23 in    
Wind  
Wind Speed 13 mph (WNW)    
Max Wind Speed 17 mph    
Max Gust Speed 23 mph    
Visibility 10 miles    
Events Rain , Snow    
Averages and records for this station are not official NWS values.
T = Trace of Precipitation, MM = Missing Value Source: NWS Daily Summary

Daily Weather History Graph

Daily Weather History Graph

Search for Another Location

Airport or City:

Trip Planner

Search our weather history database for the weather conditions in past years. The results will help you decide how hot, cold, wet, or windy it might be!

Date:

Astronomy

Jan. 03, 2013 Rise Set
Actual Time 7:48 AM CST 4:54 PM CST
Civil Twilight 7:16 AM CST 5:27 PM CST
Nautical Twilight 6:40 AM CST 6:02 PM CST
Astronomical Twilight 6:06 AM CST 6:37 PM CST
Moon 11:42 PM CST (1/3) 10:50 AM CST (1/3)
Length of Visible Light 10h 10m
Length of Day
9h 06m
Waning Gibbous, 65% of the Moon is Illuminated
Jan 3
Waning Gibbous
Jan 4
Last Quarter
Jan 11
New
Jan 18
First Quarter
Jan 26
Full

Hourly Weather History & Observations

Time (CST) Temp. Windchill Dew Point Humidity Pressure Visibility Wind Dir Wind Speed Gust Speed Precip Events Conditions
12:15 AM 26.6 °F 16.2 °F 23.0 °F 86% 30.12 in 9.0 mi NW 11.5 mph - N/A Rain Light Freezing Rain
12:35 AM 26.6 °F 16.8 °F 23.0 °F 86% 30.12 in 10.0 mi NW 10.4 mph - N/A Rain Light Freezing Rain
12:55 AM 24.8 °F 12.9 °F 21.2 °F 86% 30.12 in 9.0 mi NW 13.8 mph 20.7 mph N/A   Overcast
1:15 AM 23.0 °F 10.6 °F 19.4 °F 86% 30.13 in 8.0 mi NNW 13.8 mph 21.9 mph N/A   Light Freezing Rain
1:35 AM 21.2 °F 7.3 °F 17.6 °F 86% 30.14 in 9.0 mi North 16.1 mph 23.0 mph N/A   Overcast
1:55 AM 19.4 °F 5.0 °F 14.0 °F 80% 30.14 in 10.0 mi North 16.1 mph 21.9 mph N/A   Overcast
2:15 AM 17.6 °F 2.2 °F 14.0 °F 86% 30.15 in 10.0 mi NNW 17.3 mph - N/A   Overcast
2:35 AM 17.6 °F 3.2 °F 12.2 °F 79% 30.16 in 10.0 mi NNW 15.0 mph 21.9 mph N/A Snow Light Snow
2:55 AM 15.8 °F 1.4 °F 10.4 °F 79% 30.17 in 10.0 mi NNW 13.8 mph - N/A   Overcast
3:15 AM 14.0 °F 0.5 °F 10.4 °F 86% 30.17 in 10.0 mi NW 11.5 mph - N/A   Overcast
3:35 AM 14.0 °F 0.5 °F 8.6 °F 79% 30.17 in 10.0 mi NW 11.5 mph - N/A   Scattered Clouds
3:55 AM 12.2 °F -1.0 °F 8.6 °F 85% 30.17 in 10.0 mi NW 10.4 mph - N/A   Mostly Cloudy
4:15 AM 12.2 °F -2.5 °F 6.8 °F 79% 30.17 in 10.0 mi NW 12.7 mph - N/A   Partly Cloudy
4:35 AM 10.4 °F -5.4 °F 6.8 °F 85% 30.17 in 10.0 mi NW 13.8 mph - N/A   Clear
4:55 AM 10.4 °F -6.0 °F 6.8 °F 85% 30.18 in 10.0 mi NW 15.0 mph 21.9 mph N/A   Scattered Clouds
5:15 AM 10.4 °F -4.8 °F 5.0 °F 79% 30.20 in 10.0 mi NW 12.7 mph 20.7 mph N/A   Overcast
5:35 AM 10.4 °F -6.6 °F 5.0 °F 79% 30.20 in 10.0 mi NW 16.1 mph 23.0 mph N/A   Overcast
5:55 AM 8.6 °F -8.9 °F 3.2 °F 79% 30.21 in 10.0 mi NW 16.1 mph 23.0 mph N/A   Overcast
6:15 AM 8.6 °F -8.3 °F 3.2 °F 79% 30.22 in 10.0 mi NW 15.0 mph - N/A   Overcast
6:35 AM 8.6 °F -6.3 °F 3.2 °F 79% 30.23 in 10.0 mi NW 11.5 mph 18.4 mph N/A   Overcast
6:55 AM 8.6 °F -7.7 °F 3.2 °F 79% 30.23 in 10.0 mi NW 13.8 mph 19.6 mph N/A   Overcast
7:15 AM 6.8 °F -10.0 °F 3.2 °F 85% 30.24 in 10.0 mi NW 13.8 mph - N/A   Overcast
7:35 AM 6.8 °F -9.3 °F 1.4 °F 79% 30.24 in 10.0 mi NW 12.7 mph - N/A   Overcast
7:55 AM 6.8 °F -9.3 °F 1.4 °F 79% 30.25 in 10.0 mi NW 12.7 mph 18.4 mph N/A   Overcast
8:15 AM 6.8 °F -7.8 °F 1.4 °F 79% 30.25 in 10.0 mi NW 10.4 mph 16.1 mph N/A   Overcast
8:35 AM 6.8 °F -5.9 °F 1.4 °F 79% 30.27 in 10.0 mi NW 8.1 mph - N/A   Overcast
8:55 AM 6.8 °F -6.9 °F 1.4 °F 79% 30.27 in 10.0 mi NW 9.2 mph - N/A   Overcast
9:35 AM 6.8 °F -4.8 °F 1.4 °F 79% 30.29 in 10.0 mi WNW 6.9 mph - N/A   Overcast
9:55 AM 8.6 °F -3.7 °F 1.4 °F 73% 30.29 in 10.0 mi NW 8.1 mph - N/A   Overcast
10:15 AM 8.6 °F -5.5 °F 3.2 °F 79% 30.30 in - NW 10.4 mph - N/A   Overcast
10:35 AM 10.4 °F -6.0 °F 3.2 °F 73% 30.31 in 10.0 mi NW 15.0 mph - N/A   Overcast
10:55 AM 10.4 °F -5.4 °F 3.2 °F 73% 30.30 in 10.0 mi NW 13.8 mph - N/A   Overcast
11:15 AM 10.4 °F -6.6 °F 5.0 °F 79% 30.30 in 10.0 mi NW 16.1 mph - N/A   Scattered Clouds
11:35 AM 12.2 °F -3.1 °F 5.0 °F 73% 30.30 in 10.0 mi NW 13.8 mph 20.7 mph N/A   Partly Cloudy
11:55 AM 12.2 °F -3.7 °F 5.0 °F 73% 30.29 in 10.0 mi NW 15.0 mph - N/A   Scattered Clouds
12:15 PM 12.2 °F -2.5 °F 5.0 °F 73% 30.28 in 10.0 mi NW 12.7 mph 19.6 mph N/A   Partly Cloudy
12:35 PM 12.2 °F -3.7 °F 6.8 °F 79% 30.28 in 10.0 mi NW 15.0 mph 21.9 mph N/A   Clear
12:55 PM 14.0 °F -1.4 °F 6.8 °F 73% 30.27 in 10.0 mi NW 15.0 mph - N/A   Mostly Cloudy
1:35 PM 14.0 °F -2.0 °F 6.8 °F 73% 30.27 in 10.0 mi NW 16.1 mph 23.0 mph N/A   Overcast
1:55 PM 14.0 °F -0.8 °F 6.8 °F 73% 30.27 in 10.0 mi NW 13.8 mph - N/A   Mostly Cloudy
2:15 PM 14.0 °F 1.2 °F 6.8 °F 73% 30.27 in 10.0 mi NW 10.4 mph 17.3 mph N/A   Scattered Clouds
2:35 PM 14.0 °F 0.5 °F 6.8 °F 73% 30.27 in 10.0 mi NW 11.5 mph - N/A   Mostly Cloudy
2:55 PM 14.0 °F 2.0 °F 8.6 °F 79% 30.28 in 10.0 mi WNW 9.2 mph - N/A   Mostly Cloudy
3:15 PM 14.0 °F 2.0 °F 8.6 °F 79% 30.28 in 9.0 mi WNW 9.2 mph - N/A   Mostly Cloudy
3:35 PM 14.0 °F 2.0 °F 8.6 °F 79% 30.28 in 9.0 mi WNW 9.2 mph - N/A Snow Light Snow
3:55 PM 14.0 °F 2.0 °F 8.6 °F 79% 30.29 in 10.0 mi WNW 9.2 mph - N/A   Overcast
4:15 PM 14.0 °F 2.0 °F 8.6 °F 79% 30.29 in 10.0 mi West 9.2 mph - N/A Snow Light Snow
4:35 PM 14.0 °F 2.9 °F 8.6 °F 79% 30.29 in 8.0 mi West 8.1 mph - N/A Snow Light Snow
4:55 PM 12.2 °F 1.7 °F 6.8 °F 79% 30.29 in 10.0 mi West 6.9 mph - N/A   Mostly Cloudy
5:15 PM 14.0 °F 2.9 °F 8.6 °F 79% 30.29 in 10.0 mi WSW 8.1 mph - N/A   Overcast
5:35 PM 12.2 °F 0.7 °F 8.6 °F 85% 30.28 in 10.0 mi SW 8.1 mph - N/A   Mostly Cloudy
5:55 PM 12.2 °F -0.2 °F 8.6 °F 85% 30.28 in 10.0 mi WSW 9.2 mph - N/A   Clear
6:15 PM 12.2 °F -1.8 °F 8.6 °F 85% 30.27 in 10.0 mi SW 11.5 mph - N/A   Clear
6:35 PM 10.4 °F -3.3 °F 6.8 °F 85% 30.27 in 10.0 mi SW 10.4 mph - N/A Snow Light Snow
6:55 PM 12.2 °F -1.8 °F 6.8 °F 79% 30.27 in 10.0 mi SW 11.5 mph - N/A Snow Light Snow
7:15 PM 10.4 °F -4.1 °F 6.8 °F 85% 30.26 in 10.0 mi SSW 11.5 mph - N/A Snow Light Snow
7:35 PM 10.4 °F -4.1 °F 6.8 °F 85% 30.25 in 10.0 mi SSW 11.5 mph - N/A Snow Light Snow
7:55 PM 10.4 °F -3.3 °F 6.8 °F 85% 30.25 in 10.0 mi SW 10.4 mph - N/A   Clear
8:15 PM 10.4 °F -3.3 °F 8.6 °F 92% 30.25 in 10.0 mi SW 10.4 mph - N/A   Clear
8:35 PM 10.4 °F -4.8 °F 6.8 °F 85% 30.24 in 10.0 mi SSW 12.7 mph - N/A Snow Light Snow
8:55 PM 8.6 °F -7.7 °F 6.8 °F 92% 30.22 in 10.0 mi SSW 13.8 mph - N/A   Clear
9:15 PM 10.4 °F -4.8 °F 6.8 °F 85% 30.22 in 10.0 mi SSW 12.7 mph - N/A   Clear
9:35 PM 10.4 °F -5.4 °F 6.8 °F 85% 30.21 in 10.0 mi SW 13.8 mph - N/A   Clear
9:55 PM 10.4 °F -4.8 °F 8.6 °F 92% 30.21 in 10.0 mi SSW 12.7 mph - N/A Snow Light Snow
10:15 PM 12.2 °F -2.5 °F 8.6 °F 85% 30.20 in 10.0 mi SSW 12.7 mph - N/A Snow Light Snow
10:35 PM 12.2 °F -1.8 °F 8.6 °F 85% 30.20 in 10.0 mi SSW 11.5 mph - N/A Snow Light Snow
10:55 PM 12.2 °F -2.5 °F 10.4 °F 92% 30.19 in 10.0 mi SSW 12.7 mph - N/A   Clear
11:15 PM 12.2 °F -3.1 °F 10.4 °F 92% 30.18 in 10.0 mi SSW 13.8 mph - N/A   Clear
11:35 PM 12.2 °F -3.7 °F 10.4 °F 92% 30.17 in 9.0 mi SSW 15.0 mph 20.7 mph N/A   Clear
11:55 PM 12.2 °F -3.1 °F 8.6 °F 85% 30.17 in 10.0 mi SW 13.8 mph - N/A Snow Light Snow